Tracking 29892 objects as of 21-Nov-2024
HD Live streaming from Space Station
objects crossing your sky now

STARLINK-31569

Track STARLINK-31569 now!
10-day predictions
STARLINK-31569 is classified as:


NORAD ID: 59857
Int'l Code: 2024-097Y
Perigee: 449.7 km
Apogee: 452.7 km
Inclination: 43.0 °
Period: 93.5 minutes
Semi major axis: 6822 km
RCS: Unknown
Launch date: May 23, 2024
Source: United States (US)
Launch site: AIR FORCE EASTERN TEST RANGE (AFETR)
Your satellite tracking list
Your tracking list is empty




NASA's NSSDC Master Catalog

Two Line Element Set (TLE):
1 59857U 24097Y   24325.40203283  .00000364  00000-0  15997-4 0  9992
2 59857  43.0042  85.6099 0002188 277.9719  82.0889 15.40700868 29237
Source of the keplerian elements: AFSPC